Date,TemperatureHighF,TemperatureAvgF,TemperatureLowF,DewpointHighF,DewpointAvgF,DewpointLowF,HumidityHigh,HumidityAvg,HumidityLow,PressureMaxIn,PressureMinIn,WindSpeedMaxMPH,WindSpeedAvgMPH,GustSpeedMaxMPH,PrecipitationSumIn
2013-1-1,16,7,2,-100,-100,-100,0,0,100,0.00,40.00,0,-999,0,0.05
2013-1-2,21,3,-6,-100,-100,-100,0,0,100,0.00,40.00,0,-999,0,0.02
2013-1-3,27,-3,-14,-100,-100,-100,0,0,100,0.00,40.00,0,-999,0,0.03
2013-1-4,28,1,-11,-100,-100,-100,0,0,100,0.00,40.00,0,-999,0,0.01
2013-1-5,29,1,-10,-100,-100,-100,0,0,100,0.00,40.00,0,-999,0,0.01
2013-1-6,22,9,-4,-100,-100,-100,0,0,100,0.00,40.00,0,-999,0,0.00
2013-1-7,20,11,1,-100,-100,-100,0,0,100,0.00,40.00,0,-999,0,0.07
2013-1-8,28,21,16,-100,-100,-100,0,0,100,0.00,40.00,0,-999,0,0.20
2013-1-9,38,27,23,-100,-100,-100,0,0,100,0.00,40.00,0,-999,0,0.15
2013-1-10,31,24,12,-100,-100,-100,0,0,100,0.00,40.00,0,-999,0,0.50
2013-1-11,11,6,-4,-100,-100,-100,0,0,100,0.00,40.00,0,-999,0,0.25
2013-1-12,16,0,-11,-100,-100,-100,0,0,100,0.00,40.00,0,-999,0,0.03
2013-1-13,13,-2,-19,-100,-100,-100,0,0,100,0.00,40.00,0,-999,0,0.04
2013-1-14,6,-3,-7,-100,-100,-100,0,0,100,0.00,40.00,0,-999,0,0.02
2013-1-15,7,2,-5,-100,-100,-100,0,0,100,0.00,40.00,0,-999,0,0.08
2013-1-16,20,10,2,-100,-100,-100,0,0,100,0.00,40.00,0,-999,0,0.02
2013-1-17,38,10,-5,-100,-100,-100,0,0,100,0.00,40.00,0,-999,0,0.02
2013-1-18,32,19,1,-100,-100,-100,0,0,100,0.00,40.00,0,-999,0,0.01
2013-1-19,31,17,-1,-100,-100,-100,0,0,100,0.00,40.00,0,-999,0,0.00
2013-1-20,33,18,6,-100,-100,-100,0,0,100,0.00,40.00,0,-999,0,0.00
2013-1-21,35,19,5,-100,-100,-100,0,0,100,0.00,40.00,0,-999,0,0.00
2013-1-22,41,12,-3,-100,-100,-100,0,0,100,0.00,40.00,0,-999,0,0.00
2013-1-23,35,16,4,-100,-100,-100,0,0,100,0.00,40.00,0,-999,0,0.00
2013-1-24,35,24,15,-100,-100,-100,0,0,100,0.00,40.00,0,-999,0,0.00
2013-1-25,41,34,30,-100,-100,-100,0,0,100,0.00,40.00,0,-999,0,0.00
2013-1-26,38,33,29,-100,-100,-100,0,0,100,0.00,40.00,0,-999,0,0.16
2013-1-27,31,26,18,-100,-100,-100,0,0,100,0.00,40.00,0,-999,0,0.49
2013-1-28,23,15,7,-100,-100,-100,0,0,100,0.00,40.00,0,-999,0,0.17
2013-1-29,23,12,8,-100,-100,-100,0,0,100,0.00,40.00,0,-999,0,0.18
2013-1-30,28,21,11,-100,-100,-100,0,0,100,0.00,40.00,0,-999,0,0.27
2013-1-31,32,26,23,-100,-100,-100,0,0,100,0.00,40.00,0,-999,0,0.03
2013-2-1,34,27,22,-100,-100,-100,0,0,100,0.00,40.00,0,-999,0,0.14
2013-2-2,32,21,7,-100,-100,-100,0,0,100,0.00,40.00,0,-999,0,0.01
2013-2-3,37,21,13,-100,-100,-100,0,0,100,0.00,40.00,0,-999,0,0.01
2013-2-4,28,22,18,-100,-100,-100,0,0,100,0.00,40.00,0,-999,0,0.01
2013-2-5,45,29,21,-100,-100,-100,0,0,100,0.00,40.00,0,-999,0,0.00
2013-2-6,28,21,12,-100,-100,-100,0,0,100,0.00,40.00,0,-999,0,0.02
2013-2-7,39,19,11,-100,-100,-100,0,0,100,0.00,40.00,0,-999,0,0.01
2013-2-8,39,20,6,-100,-100,-100,0,0,100,0.00,40.00,0,-999,0,0.02
2013-2-9,35,22,13,-100,-100,-100,0,0,100,0.00,40.00,0,-999,0,0.02
2013-2-10,25,15,-6,-100,-100,-100,0,0,100,0.00,40.00,0,-999,0,0.13
2013-2-11,32,-2,-17,-100,-100,-100,0,0,100,0.00,40.00,0,-999,0,0.02
2013-2-12,24,13,-2,-100,-100,-100,0,0,100,0.00,40.00,0,-999,0,0.00
2013-2-13,31,23,18,-100,-100,-100,0,0,100,0.00,40.00,0,-999,0,0.08
2013-2-14,31,23,17,-100,-100,-100,0,0,100,0.00,40.00,0,-999,0,0.10
2013-2-15,39,23,17,-100,-100,-100,0,0,100,0.00,40.00,0,-999,0,0.01
2013-2-16,50,27,16,-100,-100,-100,0,0,100,0.00,40.00,0,-999,0,0.01
2013-2-17,30,22,10,-100,-100,-100,0,0,100,0.00,40.00,0,-999,0,0.11
2013-2-18,36,16,2,-100,-100,-100,0,0,100,0.00,40.00,0,-999,0,0.01
2013-2-19,38,14,-2,-100,-100,-100,0,0,100,0.00,40.00,0,-999,0,0.02
2013-2-20,36,16,2,-100,-100,-100,0,0,100,0.00,40.00,0,-999,0,0.01
2013-2-21,34,17,6,-100,-100,-100,0,0,100,0.00,40.00,0,-999,0,0.02
2013-2-22,28,16,9,-100,-100,-100,0,0,100,0.00,40.00,0,-999,0,0.01
2013-2-23,28,20,10,-100,-100,-100,0,0,100,0.00,40.00,0,-999,0,0.46
2013-2-24,38,12,-6,-100,-100,-100,0,0,100,0.00,40.00,0,-999,0,0.06
2013-2-25,25,10,-4,-100,-100,-100,0,0,100,0.00,40.00,0,-999,0,0.04
2013-2-26,30,13,5,-100,-100,-100,0,0,100,0.00,40.00,0,-999,0,0.05
2013-2-27,32,14,1,-100,-100,-100,0,0,100,0.00,40.00,0,-999,0,0.04
2013-2-28,29,15,-2,-100,-100,-100,0,0,100,0.00,40.00,0,-999,0,0.08
2013-3-1,31,26,19,-100,-100,-100,0,0,100,0.00,40.00,0,-999,0,0.04
2013-3-2,49,32,19,-100,-100,-100,0,0,100,0.00,40.00,0,-999,0,0.01
2013-3-3,39,30,17,-100,-100,-100,0,0,100,0.00,40.00,0,-999,0,0.60
2013-3-4,30,12,-4,-100,-100,-100,0,0,100,0.00,40.00,0,-999,0,0.18
2013-3-5,39,12,-12,-100,-100,-100,0,0,100,0.00,40.00,0,-999,0,0.01
2013-3-6,34,22,7,-100,-100,-100,0,0,100,0.00,40.00,0,-999,0,0.29
2013-3-7,46,24,10,-100,-100,-100,0,0,100,0.00,40.00,0,-999,0,0.33
2013-3-8,49,26,16,-100,-100,-100,0,0,100,0.00,40.00,0,-999,0,0.09
2013-3-9,43,22,10,-100,-100,-100,0,0,100,0.00,40.00,0,-999,0,0.08
2013-3-10,52,19,3,-100,-100,-100,0,0,100,0.00,40.00,0,-999,0,0.02
2013-3-11,44,29,18,-100,-100,-100,0,0,100,0.00,40.00,0,-999,0,0.02
2013-3-12,44,25,7,-100,-100,-100,0,0,100,0.00,40.00,0,-999,0,0.02
2013-3-13,59,37,27,-100,-100,-100,0,0,100,0.00,40.00,0,-999,0,0.01
2013-3-14,65,37,24,-100,-100,-100,0,0,100,0.00,40.00,0,-999,0,0.00
2013-3-15,56,43,33,-100,-100,-100,0,0,100,0.00,40.00,0,-999,0,0.00
2013-3-16,51,35,26,-100,-100,-100,0,0,100,0.00,40.00,0,-999,0,0.00
2013-3-17,34,24,15,-100,-100,-100,0,0,100,0.00,40.00,0,-999,0,0.81
2013-3-18,29,18,9,-100,-100,-100,0,0,100,0.00,40.00,0,-999,0,0.13
2013-3-19,45,20,6,-100,-100,-100,0,0,100,0.00,40.00,0,-999,0,0.12
2013-3-20,36,25,11,-100,-100,-100,0,0,100,0.00,40.00,0,-999,0,0.17
2013-3-21,39,27,18,-100,-100,-100,0,0,100,0.00,40.00,0,-999,0,0.79
2013-3-22,28,16,1,-100,-100,-100,0,0,100,0.00,40.00,0,-999,0,0.48
2013-3-23,29,6,-9,-100,-100,-100,0,0,100,0.00,40.00,0,-999,0,0.06
2013-3-24,34,8,-10,-100,-100,-100,0,0,100,0.00,40.00,0,-999,0,0.01
2013-3-25,46,6,-13,-100,-100,-100,0,0,100,0.00,40.00,0,-999,0,0.02
2013-3-26,42,23,5,-100,-100,-100,0,0,100,0.00,40.00,0,-999,0,0.01
2013-3-27,48,32,19,-100,-100,-100,0,0,100,0.00,40.00,0,-999,0,0.01
2013-3-28,60,36,17,-100,-100,-100,0,0,100,0.00,40.00,0,-999,0,0.01
2013-3-29,56,33,22,-100,-100,-100,0,0,100,0.00,40.00,0,-999,0,0.02
2013-3-30,56,38,25,-100,-100,-100,0,0,100,0.00,40.00,0,-999,0,0.09
2013-3-31,64,31,19,-100,-100,-100,0,0,100,0.00,40.00,0,-999,0,0.05
2013-4-1,66,36,18,-100,-100,-100,0,0,100,0.00,40.00,0,-999,0,0.03
2013-4-2,66,35,19,-100,-100,-100,0,0,100,0.00,40.00,0,-999,0,0.03
2013-4-3,62,38,24,-100,-100,-100,0,0,100,0.00,40.00,0,-999,0,0.01
2013-4-4,58,42,27,-100,-100,-100,0,0,100,0.00,40.00,0,-999,0,0.01
2013-4-5,50,38,32,-100,-100,-100,0,0,100,0.00,40.00,0,-999,0,0.31
2013-4-6,41,34,28,-100,-100,-100,0,0,100,0.00,40.00,0,-999,0,0.16
2013-4-7,41,34,28,-100,-100,-100,0,0,100,0.00,40.00,0,-999,0,0.33
2013-4-8,29,25,18,-100,-100,-100,0,0,100,0.00,40.00,0,-999,0,0.23
2013-4-9,41,24,13,-100,-100,-100,0,0,100,0.00,40.00,0,-999,0,0.11
2013-4-10,46,25,5,-100,-100,-100,0,0,100,0.00,40.00,0,-999,0,0.01
2013-4-11,54,37,29,-100,-100,-100,0,0,100,0.00,40.00,0,-999,0,0.01
2013-4-12,54,31,17,-100,-100,-100,0,0,100,0.00,40.00,0,-999,0,0.03
2013-4-13,47,31,21,-100,-100,-100,0,0,100,0.00,40.00,0,-999,0,0.89
2013-4-14,44,22,13,-100,-100,-100,0,0,100,0.00,40.00,0,-999,0,0.11
2013-4-15,42,20,6,-100,-100,-100,0,0,100,0.00,40.00,0,-999,0,0.07
2013-4-16,34,21,10,-100,-100,-100,0,0,100,0.00,40.00,0,-999,0,0.08
2013-4-17,37,18,-1,-100,-100,-100,0,0,100,0.00,40.00,0,-999,0,0.02
2013-4-18,43,23,-3,-100,-100,-100,0,0,100,0.00,40.00,0,-999,0,0.01
2013-4-19,43,32,19,-100,-100,-100,0,0,100,0.00,40.00,0,-999,0,0.07
2013-4-20,45,35,30,-100,-100,-100,0,0,100,0.00,40.00,0,-999,0,0.38
2013-4-21,55,34,26,-100,-100,-100,0,0,100,0.00,40.00,0,-999,0,0.18
2013-4-22,32,27,12,-100,-100,-100,0,0,100,0.00,40.00,0,-999,0,0.38
2013-4-23,49,21,-5,-100,-100,-100,0,0,100,0.00,40.00,0,-999,0,0.05
2013-4-24,54,30,9,-100,-100,-100,0,0,100,0.00,40.00,0,-999,0,0.01
2013-4-25,59,36,19,-100,-100,-100,0,0,100,0.00,40.00,0,-999,0,0.00
2013-4-26,64,37,20,-100,-100,-100,0,0,100,0.00,40.00,0,-999,0,0.00
2013-4-27,67,42,24,-100,-100,-100,0,0,100,0.00,40.00,0,-999,0,0.00
2013-4-28,56,45,35,-100,-100,-100,0,0,100,0.00,40.00,0,-999,0,0.01
2013-4-29,50,38,27,-100,-100,-100,0,0,100,0.00,40.00,0,-999,0,0.11
2013-4-30,47,32,20,-100,-100,-100,0,0,100,0.00,40.00,0,-999,0,0.05
2013-5-1,43,29,20,-100,-100,-100,0,0,100,0.00,40.00,0,-999,0,0.01
2013-5-2,59,30,10,-100,-100,-100,0,0,100,0.00,40.00,0,-999,0,0.03
2013-5-3,56,38,23,-100,-100,-100,0,0,100,0.00,40.00,0,-999,0,0.00
2013-5-4,49,40,31,-100,-100,-100,0,0,100,0.00,40.00,0,-999,0,0.00
2013-5-5,67,40,29,-100,-100,-100,0,0,100,0.00,40.00,0,-999,0,0.06
2013-5-6,69,43,28,-100,-100,-100,0,0,100,0.00,40.00,0,-999,0,0.08
2013-5-7,69,43,27,-100,-100,-100,0,0,100,0.00,40.00,0,-999,0,0.01
2013-5-8,66,47,30,-100,-100,-100,0,0,100,0.00,40.00,0,-999,0,0.04
2013-5-9,65,44,27,-100,-100,-100,0,0,100,0.00,40.00,0,-999,0,0.01
2013-5-10,66,45,27,-100,-100,-100,0,0,100,0.00,40.00,0,-999,0,0.00
2013-5-11,68,46,27,-100,-100,-100,0,0,100,0.00,40.00,0,-999,0,0.00
2013-5-12,76,52,33,-100,-100,-100,0,0,100,0.00,40.00,0,-999,0,0.00
2013-5-13,76,55,36,-100,-100,-100,0,0,100,0.00,40.00,0,-999,0,0.00
2013-5-14,73,57,38,-100,-100,-100,0,0,100,0.00,40.00,0,-999,0,0.00
2013-5-15,70,54,33,-100,-100,-100,0,0,100,0.00,40.00,0,-999,0,0.00
2013-5-16,65,47,40,-100,-100,-100,0,0,100,0.00,40.00,0,-999,0,0.11
2013-5-17,49,44,38,-100,-100,-100,0,0,100,0.00,40.00,0,-999,0,0.46
2013-5-18,46,40,36,-100,-100,-100,0,0,100,0.00,40.00,0,-999,0,0.41
2013-5-19,46,39,35,-100,-100,-100,0,0,100,0.00,40.00,0,-999,0,0.38
2013-5-20,56,44,35,-100,-100,-100,0,0,100,0.00,40.00,0,-999,0,0.06
2013-5-21,64,48,28,-100,-100,-100,0,0,100,0.00,40.00,0,-999,0,0.01
2013-5-22,68,48,36,-100,-100,-100,0,0,100,0.00,40.00,0,-999,0,0.01
2013-5-23,64,44,32,-100,-100,-100,0,0,100,0.00,40.00,0,-999,0,0.07
2013-5-24,63,45,29,-100,-100,-100,0,0,100,0.00,40.00,0,-999,0,0.01
2013-5-25,66,45,27,-100,-100,-100,0,0,100,0.00,40.00,0,-999,0,0.00
2013-5-26,68,47,30,-100,-100,-100,0,0,100,0.00,40.00,0,-999,0,0.00
2013-5-27,59,45,35,-100,-100,-100,0,0,100,0.00,40.00,0,-999,0,0.05
2013-5-28,56,42,36,-100,-100,-100,0,0,100,0.00,40.00,0,-999,0,0.10
2013-5-29,46,41,38,-100,-100,-100,0,0,100,0.00,40.00,0,-999,0,0.15
2013-5-30,38,36,36,-100,-100,-100,0,0,100,0.00,40.00,0,-999,0,0.37
2013-5-31,56,48,34,-100,-100,-100,0,0,100,0.00,40.00,0,-999,0,0.00
2013-6-1,68,48,27,-100,-100,-100,0,0,100,0.00,40.00,0,-999,0,0.01
2013-6-2,73,53,35,-100,-100,-100,0,0,100,0.00,40.00,0,-999,0,0.01
2013-6-3,55,44,32,-100,-100,-100,0,0,100,0.00,40.00,0,-999,0,0.02
2013-6-4,58,47,36,-100,-100,-100,0,0,100,0.00,40.00,0,-999,0,0.01
2013-6-5,72,49,27,-100,-100,-100,0,0,100,0.00,40.00,0,-999,0,0.01
2013-6-6,76,54,34,-100,-100,-100,0,0,100,0.00,40.00,0,-999,0,0.00
2013-6-7,76,56,36,-100,-100,-100,0,0,100,0.00,40.00,0,-999,0,0.03
2013-6-8,74,58,41,-100,-100,-100,0,0,100,0.00,40.00,0,-999,0,0.03
2013-6-9,82,60,37,-100,-100,-100,0,0,100,0.00,40.00,0,-999,0,0.03
2013-6-10,83,67,50,-100,-100,-100,0,0,100,0.00,40.00,0,-999,0,0.03
2013-6-11,74,59,41,-100,-100,-100,0,0,100,0.00,40.00,0,-999,0,0.00
2013-6-12,62,52,41,-100,-100,-100,0,0,100,0.00,40.00,0,-999,0,0.00
2013-6-13,72,53,39,-100,-100,-100,0,0,100,0.00,40.00,0,-999,0,0.16
2013-6-14,60,44,33,-100,-100,-100,0,0,100,0.00,40.00,0,-999,0,0.15
2013-6-15,76,46,25,-100,-100,-100,0,0,100,0.00,40.00,0,-999,0,0.02
2013-6-16,76,48,30,-100,-100,-100,0,0,100,0.00,40.00,0,-999,0,0.00
2013-6-17,80,57,35,-100,-100,-100,0,0,100,0.00,40.00,0,-999,0,0.01
2013-6-18,82,59,39,-100,-100,-100,0,0,100,0.00,40.00,0,-999,0,0.01
2013-6-19,74,53,38,-100,-100,-100,0,0,100,0.00,40.00,0,-999,0,0.05
2013-6-20,60,39,27,-100,-100,-100,0,0,100,0.00,40.00,0,-999,0,0.03
2013-6-22,62,52,42,-100,-100,-100,0,0,100,0.00,40.00,0,-999,0,0.00
2013-6-23,75,49,31,-100,-100,-100,0,0,100,0.00,40.00,0,-999,0,0.00
2013-6-24,77,51,36,-100,-100,-100,0,0,100,0.00,40.00,0,-999,0,0.05
2013-6-25,67,53,45,-100,-100,-100,0,0,100,0.00,40.00,0,-999,0,0.15
2013-6-26,75,57,46,-100,-100,-100,0,0,100,0.00,40.00,0,-999,0,0.19
2013-6-27,86,62,43,-100,-100,-100,0,0,100,0.00,40.00,0,-999,0,0.01
2013-6-28,90,66,42,-100,-100,-100,0,0,100,0.00,40.00,0,-999,0,0.01
2013-6-29,87,62,43,-100,-100,-100,0,0,100,0.00,40.00,0,-999,0,0.02
2013-6-30,88,66,47,-100,-100,-100,0,0,100,0.00,40.00,0,-999,0,0.01
2013-7-1,89,66,45,-100,-100,-100,0,0,100,0.00,40.00,0,-999,0,0.01
2013-7-2,89,65,45,-100,-100,-100,0,0,100,0.00,40.00,0,-999,0,0.01
2013-7-3,88,70,49,-100,-100,-100,0,0,100,0.00,40.00,0,-999,0,0.01
2013-7-4,84,68,50,-100,-100,-100,0,0,100,0.00,40.00,0,-999,0,0.01
2013-7-5,82,63,51,-100,-100,-100,0,0,100,0.00,40.00,0,-999,0,0.10
2013-7-6,75,52,44,-100,-100,-100,0,0,100,0.00,40.00,0,-999,0,0.28
2013-7-7,77,57,41,-100,-100,-100,0,0,100,0.00,40.00,0,-999,0,0.30
2013-7-8,82,58,44,-100,-100,-100,0,0,100,0.00,40.00,0,-999,0,0.02
2013-7-9,84,62,41,-100,-100,-100,0,0,100,0.00,40.00,0,-999,0,0.01
2013-7-10,87,61,42,-100,-100,-100,0,0,100,0.00,40.00,0,-999,0,0.03
2013-7-11,79,61,49,-100,-100,-100,0,0,100,0.00,40.00,0,-999,0,0.01
2013-7-12,78,59,47,-100,-100,-100,0,0,100,0.00,40.00,0,-999,0,0.01
2013-7-13,77,59,44,-100,-100,-100,0,0,100,0.00,40.00,0,-999,0,0.04
2013-7-14,79,59,44,-100,-100,-100,0,0,100,0.00,40.00,0,-999,0,0.03
2013-7-15,87,63,42,-100,-100,-100,0,0,100,0.00,40.00,0,-999,0,0.03
2013-7-16,80,60,46,-100,-100,-100,0,0,100,0.00,40.00,0,-999,0,0.00
2013-7-17,88,67,53,-100,-100,-100,0,0,100,0.00,40.00,0,-999,0,0.00
2013-7-18,88,70,49,-100,-100,-100,0,0,100,0.00,40.00,0,-999,0,0.04
2013-7-19,89,62,41,-100,-100,-100,0,0,100,0.00,40.00,0,-999,0,0.03
2013-7-20,88,62,40,-100,-100,-100,0,0,100,0.00,40.00,0,-999,0,0.03
2013-7-21,87,62,40,-100,-100,-100,0,0,100,0.00,40.00,0,-999,0,0.01
2013-7-22,89,61,38,-100,-100,-100,0,0,100,0.00,40.00,0,-999,0,0.02
2013-7-23,88,58,39,-100,-100,-100,0,0,100,0.00,40.00,0,-999,0,0.01
2013-7-24,84,65,41,-100,-100,-100,0,0,100,0.00,40.00,0,-999,0,0.01
2013-7-25,85,62,40,-100,-100,-100,0,0,100,0.00,40.00,0,-999,0,0.01
2013-7-26,89,65,45,-100,-100,-100,0,0,100,0.00,40.00,0,-999,0,0.01
2013-7-27,70,58,48,-100,-100,-100,0,0,100,0.00,40.00,0,-999,0,0.01
2013-7-28,76,54,41,-100,-100,-100,0,0,100,0.00,40.00,0,-999,0,0.00
2013-7-29,77,53,41,-100,-100,-100,0,0,100,0.00,40.00,0,-999,0,0.01
2013-7-30,82,56,43,-100,-100,-100,0,0,100,0.00,40.00,0,-999,0,0.01
2013-7-31,83,60,36,-100,-100,-100,0,0,100,0.00,40.00,0,-999,0,0.03
2013-8-1,87,67,46,-100,-100,-100,0,0,100,0.00,40.00,0,-999,0,0.06
2013-8-2,79,62,45,-100,-100,-100,0,0,100,0.00,40.00,0,-999,0,0.01
2013-8-3,84,60,34,-100,-100,-100,0,0,100,0.00,40.00,0,-999,0,0.02
2013-8-4,86,62,40,-100,-100,-100,0,0,100,0.00,40.00,0,-999,0,0.01
2013-8-5,86,61,38,-100,-100,-100,0,0,100,0.00,40.00,0,-999,0,0.01
2013-8-6,83,62,40,-100,-100,-100,0,0,100,0.00,40.00,0,-999,0,0.01
2013-8-7,85,59,37,-100,-100,-100,0,0,100,0.00,40.00,0,-999,0,0.02
2013-8-8,83,59,38,-100,-100,-100,0,0,100,0.00,40.00,0,-999,0,0.01
2013-8-9,75,60,46,-100,-100,-100,0,0,100,0.00,40.00,0,-999,0,0.07
2013-8-10,84,63,45,-100,-100,-100,0,0,100,0.00,40.00,0,-999,0,0.02
2013-8-11,83,62,45,-100,-100,-100,0,0,100,0.00,40.00,0,-999,0,0.02
2013-8-12,78,57,43,-100,-100,-100,0,0,100,0.00,40.00,0,-999,0,0.03
2013-8-13,79,54,39,-100,-100,-100,0,0,100,0.00,40.00,0,-999,0,0.02
2013-8-14,86,58,41,-100,-100,-100,0,0,100,0.00,40.00,0,-999,0,0.01
2013-8-15,90,58,38,-100,-100,-100,0,0,100,0.00,40.00,0,-999,0,0.01
2013-8-16,89,63,38,-100,-100,-100,0,0,100,0.00,40.00,0,-999,0,0.01
2013-8-17,90,64,42,-100,-100,-100,0,0,100,0.00,40.00,0,-999,0,0.01
2013-8-18,88,66,49,-100,-100,-100,0,0,100,0.00,40.00,0,-999,0,0.00
2013-8-19,90,62,42,-100,-100,-100,0,0,100,0.00,40.00,0,-999,0,0.01
2013-8-20,88,67,53,-100,-100,-100,0,0,100,0.00,40.00,0,-999,0,0.01
2013-8-21,82,59,45,-100,-100,-100,0,0,100,0.00,40.00,0,-999,0,0.28
2013-8-22,81,59,46,-100,-100,-100,0,0,100,0.00,40.00,0,-999,0,0.28
2013-8-23,75,56,47,-100,-100,-100,0,0,100,0.00,40.00,0,-999,0,0.32
2013-8-24,78,57,47,-100,-100,-100,0,0,100,0.00,40.00,0,-999,0,0.17
2013-8-25,79,58,45,-100,-100,-100,0,0,100,0.00,40.00,0,-999,0,0.15
2013-8-26,77,58,49,-100,-100,-100,0,0,100,0.00,40.00,0,-999,0,0.09
2013-8-27,71,51,42,-100,-100,-100,0,0,100,0.00,40.00,0,-999,0,0.11
2013-8-28,74,60,46,-100,-100,-100,0,0,100,0.00,40.00,0,-999,0,0.12
2013-8-29,73,56,40,-100,-100,-100,0,0,100,0.00,40.00,0,-999,0,0.11
2013-8-30,85,60,46,-100,-100,-100,0,0,100,0.00,40.00,0,-999,0,0.04
2013-8-31,84,57,39,-100,-100,-100,0,0,100,0.00,40.00,0,-999,0,0.02
2013-9-1,86,57,35,-100,-100,-100,0,0,100,0.00,40.00,0,-999,0,0.01
2013-9-2,61,53,44,-100,-100,-100,0,0,100,0.00,40.00,0,-999,0,0.13
2013-9-3,79,62,53,-100,-100,-100,0,0,100,0.00,40.00,0,-999,0,0.47
2013-9-4,79,59,51,-100,-100,-100,0,0,100,0.00,40.00,0,-999,0,0.52
2013-9-5,79,60,45,-100,-100,-100,0,0,100,0.00,40.00,0,-999,0,0.02
2013-9-6,73,54,48,-100,-100,-100,0,0,100,0.00,40.00,0,-999,0,0.46
2013-9-7,72,57,47,-100,-100,-100,0,0,100,0.00,40.00,0,-999,0,0.21
2013-9-8,70,53,45,-100,-100,-100,0,0,100,0.00,40.00,0,-999,0,0.14
2013-9-9,62,50,41,-100,-100,-100,0,0,100,0.00,40.00,0,-999,0,0.06
2013-9-10,78,50,35,-100,-100,-100,0,0,100,0.00,40.00,0,-999,0,0.01
2013-9-11,80,55,38,-100,-100,-100,0,0,100,0.00,40.00,0,-999,0,0.01
2013-9-12,65,53,45,-100,-100,-100,0,0,100,0.00,40.00,0,-999,0,0.02
2013-9-13,73,56,43,-100,-100,-100,0,0,100,0.00,40.00,0,-999,0,0.21
2013-9-14,60,52,44,-100,-100,-100,0,0,100,0.00,40.00,0,-999,0,0.33
2013-9-15,58,49,43,-100,-100,-100,0,0,100,0.00,40.00,0,-999,0,0.03
2013-9-16,75,54,46,-100,-100,-100,0,0,100,0.00,40.00,0,-999,0,0.26
2013-9-17,67,51,45,-100,-100,-100,0,0,100,0.00,40.00,0,-999,0,0.82
2013-9-18,45,41,33,-100,-100,-100,0,0,100,0.00,40.00,0,-999,0,0.98
2013-9-19,59,40,29,-100,-100,-100,0,0,100,0.00,40.00,0,-999,0,0.18
2013-9-20,71,42,26,-100,-100,-100,0,0,100,0.00,40.00,0,-999,0,0.02
2013-9-21,77,49,35,-100,-100,-100,0,0,100,0.00,40.00,0,-999,0,0.02
2013-9-22,64,50,42,-100,-100,-100,0,0,100,0.00,40.00,0,-999,0,0.03
2013-9-23,62,43,32,-100,-100,-100,0,0,100,0.00,40.00,0,-999,0,0.02
2013-9-24,67,44,32,-100,-100,-100,0,0,100,0.00,40.00,0,-999,0,0.03
2013-9-25,43,37,32,-100,-100,-100,0,0,100,0.00,40.00,0,-999,0,0.53
2013-9-26,43,34,30,-100,-100,-100,0,0,100,0.00,40.00,0,-999,0,0.10
2013-9-27,38,33,30,-100,-100,-100,0,0,100,0.00,40.00,0,-999,0,0.13
2013-9-28,47,38,32,-100,-100,-100,0,0,100,0.00,40.00,0,-999,0,0.01
2013-9-29,52,43,36,-100,-100,-100,0,0,100,0.00,40.00,0,-999,0,0.11
2013-9-30,51,44,40,-100,-100,-100,0,0,100,0.00,40.00,0,-999,0,0.64
2013-10-1,52,47,44,-100,-100,-100,0,0,100,0.00,40.00,0,-999,0,0.01
2013-10-2,54,42,32,-100,-100,-100,0,0,100,0.00,40.00,0,-999,0,0.03
2013-10-3,35,31,26,-100,-100,-100,0,0,100,0.00,40.00,0,-999,0,0.53
2013-10-4,39,28,19,-100,-100,-100,0,0,100,0.00,40.00,0,-999,0,0.33
2013-10-5,50,25,10,-100,-100,-100,0,0,100,0.00,40.00,0,-999,0,0.03
2013-10-6,61,31,22,-100,-100,-100,0,0,100,0.00,40.00,0,-999,0,0.00
2013-10-7,65,36,26,-100,-100,-100,0,0,100,0.00,40.00,0,-999,0,0.01
2013-10-8,47,35,26,-100,-100,-100,0,0,100,0.00,40.00,0,-999,0,0.02
2013-10-9,59,36,21,-100,-100,-100,0,0,100,0.00,40.00,0,-999,0,0.02
2013-10-10,53,38,28,-100,-100,-100,0,0,100,0.00,40.00,0,-999,0,0.11
2013-10-11,45,35,25,-100,-100,-100,0,0,100,0.00,40.00,0,-999,0,0.14
2013-10-12,41,30,23,-100,-100,-100,0,0,100,0.00,40.00,0,-999,0,0.04
2013-10-13,47,34,28,-100,-100,-100,0,0,100,0.00,40.00,0,-999,0,0.20
2013-10-14,35,31,26,-100,-100,-100,0,0,100,0.00,40.00,0,-999,0,0.27
2013-10-15,48,28,16,-100,-100,-100,0,0,100,0.00,40.00,0,-999,0,0.01
2013-10-16,43,29,18,-100,-100,-100,0,0,100,0.00,40.00,0,-999,0,0.02
2013-10-17,41,32,28,-100,-100,-100,0,0,100,0.00,40.00,0,-999,0,0.05
2013-10-18,48,29,16,-100,-100,-100,0,0,100,0.00,40.00,0,-999,0,0.01
2013-10-19,52,32,20,-100,-100,-100,0,0,100,0.00,40.00,0,-999,0,0.02
2013-10-20,48,36,27,-100,-100,-100,0,0,100,0.00,40.00,0,-999,0,0.01
2013-10-21,57,34,20,-100,-100,-100,0,0,100,0.00,40.00,0,-999,0,0.01
2013-10-22,61,35,24,-100,-100,-100,0,0,100,0.00,40.00,0,-999,0,0.01
2013-10-23,66,33,23,-100,-100,-100,0,0,100,0.00,40.00,0,-999,0,0.01
2013-10-24,65,34,22,-100,-100,-100,0,0,100,0.00,40.00,0,-999,0,0.03
2013-10-25,66,34,22,-100,-100,-100,0,0,100,0.00,40.00,0,-999,0,0.01
2013-10-26,62,34,23,-100,-100,-100,0,0,100,0.00,40.00,0,-999,0,0.01
2013-10-27,60,35,23,-100,-100,-100,0,0,100,0.00,40.00,0,-999,0,0.01
2013-10-28,40,35,28,-100,-100,-100,0,0,100,0.00,40.00,0,-999,0,0.04
2013-10-29,34,29,24,-100,-100,-100,0,0,100,0.00,40.00,0,-999,0,0.14
2013-10-30,34,30,28,-100,-100,-100,0,0,100,0.00,40.00,0,-999,0,0.25
2013-10-31,34,31,28,-100,-100,-100,0,0,100,0.00,40.00,0,-999,0,0.27
2013-11-1,44,32,25,-100,-100,-100,0,0,100,0.00,40.00,0,-999,0,0.09
2013-11-2,52,32,20,-100,-100,-100,0,0,100,0.00,40.00,0,-999,0,0.01
2013-11-3,38,25,10,-100,-100,-100,0,0,100,0.00,40.00,0,-999,0,0.14
2013-11-4,27,18,5,-100,-100,-100,0,0,100,0.00,40.00,0,-999,0,0.13
2013-11-5,28,18,9,-100,-100,-100,0,0,100,0.00,40.00,0,-999,0,0.10
2013-11-6,33,26,20,-100,-100,-100,0,0,100,0.00,40.00,0,-999,0,0.32
2013-11-7,35,32,29,-100,-100,-100,0,0,100,0.00,40.00,0,-999,0,0.49
2013-11-8,45,34,29,-100,-100,-100,0,0,100,0.00,40.00,0,-999,0,0.30
2013-11-9,46,32,23,-100,-100,-100,0,0,100,0.00,40.00,0,-999,0,0.01
2013-11-10,56,30,22,-100,-100,-100,0,0,100,0.00,40.00,0,-999,0,0.03
2013-11-11,54,32,23,-100,-100,-100,0,0,100,0.00,40.00,0,-999,0,0.03
2013-11-12,56,30,18,-100,-100,-100,0,0,100,0.00,40.00,0,-999,0,0.01
2013-11-13,41,31,25,-100,-100,-100,0,0,100,0.00,40.00,0,-999,0,0.10
2013-11-14,36,29,24,-100,-100,-100,0,0,100,0.00,40.00,0,-999,0,0.07
2013-11-15,34,26,22,-100,-100,-100,0,0,100,0.00,40.00,0,-999,0,0.05
2013-11-16,27,23,19,-100,-100,-100,0,0,100,0.00,40.00,0,-999,0,1.15
2013-11-17,29,21,12,-100,-100,-100,0,0,100,0.00,40.00,0,-999,0,0.36
2013-11-18,42,27,15,-100,-100,-100,0,0,100,0.00,40.00,0,-999,0,0.03
2013-11-19,35,32,27,-100,-100,-100,0,0,100,0.00,40.00,0,-999,0,0.01
2013-11-20,35,30,21,-100,-100,-100,0,0,100,0.00,40.00,0,-999,0,0.17
2013-11-21,31,16,-3,-100,-100,-100,0,0,100,0.00,40.00,0,-999,0,0.88
2013-11-22,35,2,-13,-100,-100,-100,0,0,100,0.00,40.00,0,-999,0,0.50
2013-11-23,37,14,-5,-100,-100,-100,0,0,100,0.00,40.00,0,-999,0,0.10
2013-11-24,33,15,-3,-100,-100,-100,0,0,100,0.00,40.00,0,-999,0,0.44
2013-11-25,41,24,15,-100,-100,-100,0,0,100,0.00,40.00,0,-999,0,0.01
2013-11-26,39,18,7,-100,-100,-100,0,0,100,0.00,40.00,0,-999,0,0.01
2013-11-27,39,20,10,-100,-100,-100,0,0,100,0.00,40.00,0,-999,0,0.02
2013-11-28,37,19,9,-100,-100,-100,0,0,100,0.00,40.00,0,-999,0,0.01
2013-11-29,38,19,8,-100,-100,-100,0,0,100,0.00,40.00,0,-999,0,0.01
2013-11-30,39,26,18,-100,-100,-100,0,0,100,0.00,40.00,0,-999,0,0.00
2013-12-1,33,31,28,-100,-100,-100,0,0,100,0.00,40.00,0,-999,0,0.30
2013-12-2,35,33,24,-100,-100,-100,0,0,100,0.00,40.00,0,-999,0,0.18
2013-12-3,21,9,-6,-100,-100,-100,0,0,100,0.00,40.00,0,-999,0,0.01
2013-12-4,13,-7,-21,-100,-100,-100,0,0,100,0.00,40.00,0,-999,0,0.02
2013-12-5,5,-12,-22,-100,-100,-100,0,0,100,0.00,40.00,0,-999,0,0.02
2013-12-6,4,-12,-25,-100,-100,-100,0,0,100,0.00,40.00,0,-999,0,0.04
2013-12-7,13,2,-6,-100,-100,-100,0,0,100,0.00,40.00,0,-999,0,0.10
2013-12-8,3,-5,-17,-100,-100,-100,0,0,100,0.00,40.00,0,-999,0,0.02
2013-12-9,1,-8,-16,-100,-100,-100,0,0,100,0.00,40.00,0,-999,0,0.01
2013-12-10,12,5,1,-100,-100,-100,0,0,100,0.00,40.00,0,-999,0,0.06
2013-12-11,19,6,-4,-100,-100,-100,0,0,100,0.00,40.00,0,-999,0,0.07
2013-12-12,25,5,-4,-100,-100,-100,0,0,100,0.00,40.00,0,-999,0,0.09
2013-12-13,21,12,-1,-100,-100,-100,0,0,100,0.00,40.00,0,-999,0,0.01
2013-12-14,25,19,14,-100,-100,-100,0,0,100,0.00,40.00,0,-999,0,0.02
2013-12-15,29,21,9,-100,-100,-100,0,0,100,0.00,40.00,0,-999,0,0.03
2013-12-16,30,15,6,-100,-100,-100,0,0,100,0.00,40.00,0,-999,0,0.30
2013-12-17,34,16,7,-100,-100,-100,0,0,100,0.00,40.00,0,-999,0,0.07
2013-12-18,38,24,13,-100,-100,-100,0,0,100,0.00,40.00,0,-999,0,0.67
2013-12-19,27,20,1,-100,-100,-100,0,0,100,0.00,40.00,0,-999,0,0.58
2013-12-20,17,7,-4,-100,-100,-100,0,0,100,0.00,40.00,0,-999,0,0.01
2013-12-21,23,15,10,-100,-100,-100,0,0,100,0.00,40.00,0,-999,0,0.00
2013-12-22,21,17,11,-100,-100,-100,0,0,100,0.00,40.00,0,-999,0,0.01
2013-12-23,29,24,18,-100,-100,-100,0,0,100,0.00,40.00,0,-999,0,0.00
2013-12-24,31,21,13,-100,-100,-100,0,0,100,0.00,40.00,0,-999,0,0.11
2013-12-25,26,12,3,-100,-100,-100,0,0,100,0.00,40.00,0,-999,0,0.07
2013-12-26,35,18,8,-100,-100,-100,0,0,100,0.00,40.00,0,-999,0,0.25
2013-12-27,35,15,3,-100,-100,-100,0,0,100,0.00,40.00,0,-999,0,0.05
2013-12-28,30,18,3,-100,-100,-100,0,0,100,0.00,40.00,0,-999,0,0.07
2013-12-29,19,13,1,-100,-100,-100,0,0,100,0.00,40.00,0,-999,0,0.02
2013-12-30,29,20,17,-100,-100,-100,0,0,100,0.00,40.00,0,-999,0,0.22
2013-12-31,26,23,20,-100,-100,-100,0,0,100,0.00,40.00,0,-999,0,0.20
2014-1-1,28,20,11,-100,-100,-100,0,0,100,0.00,40.00,0,-999,0,0.05
2014-1-2,27,17,9,-100,-100,-100,0,0,100,0.00,40.00,0,-999,0,0.03